Home > Weather > Palermo > Past weeks

Flag for Italy Weather for the Past 2 Weeks in Palermo, Italy

Now
57 °F

Clear.


Feels Like: 53 °F
Forecast: 53 / 58 °F
Wind: 22 mph from South

Location: Palermo / Punta Raisi

Current Time: Feb 7, 2016 at 4:50:44 AM

Latest Report: Feb 7, 2016 at 3:50 AM


Visibility: 10 mi

Pressure: 30.27 "Hg

Humidity: 59%

Dew point: 43 °F

Location of PalermoLocation

Historic Weather in Palermo — Graph

°F

Palermo Temperature Yesterday

Maximum temperature yesterday: 59 °F (at 12:50 PM)
Minimum temperature yesterday: 43 °F (at 6:20 AM)
Average temperature yesterday: 53 °F

High & Low Weather Summary for the Past Weeks

 TemperatureHumidityPressure
High64 °F (Feb 3, 12:20 PM)100% (Feb 1, 11:20 PM)30.60 "Hg (Feb 1, 11:20 PM)
Low43 °F (Feb 6, 6:20 AM)39% (Jan 25, 1:20 PM)30.12 "Hg (Feb 3, 5:20 PM)
Average55 °F73%30.39 "Hg
* Reported Jan 23 3:50 AM — Feb 7 3:20 AM, Palermo, Weather by CustomWeather, © 2016

Note: Actual official high and low records may vary slightly from our data, if they occured in-between our weather recording intervals... More about our weather records

Advertising

Palermo Weather History for the Previous 24 Hours

 ConditionsComfort  
Time TempWeatherWind HumidityBarometerVisibility
3:20 AM
Sun, Feb 7
57 °FClear.21 mph59%30.27 "Hg10 mi
2:50 AM57 °FClear.16 mph59%30.27 "Hg10 mi
2:20 AM57 °FPassing clouds.13 mph59%30.30 "HgN/A
1:50 AM57 °FPassing clouds.15 mph59%30.30 "HgN/A
1:20 AM57 °FClear.16 mph55%30.30 "Hg10 mi
12:50 AM57 °FPassing clouds.10 mph55%30.33 "HgN/A
11:50 PM
Sat, Feb 6
55 °FClear.12 mph63%30.33 "Hg10 mi
11:20 PM55 °FPassing clouds.5 mph55%30.36 "HgN/A
10:50 PM55 °FPassing clouds.5 mph51%30.36 "HgN/A
9:50 PM54 °FClear.8 mph51%30.39 "Hg10 mi
9:20 PM54 °FClear.8 mph54%30.39 "Hg10 mi
8:50 PM54 °FClear.9 mph51%30.39 "Hg10 mi
8:20 PM54 °FClear.10 mph47%30.39 "Hg10 mi
7:50 PM54 °FClear.10 mph44%30.39 "Hg10 mi
7:20 PM55 °FClear.13 mph47%30.39 "Hg10 mi
6:50 PM54 °FClear.8 mph44%30.39 "Hg10 mi
6:20 PM54 °FClear.8 mph41%30.39 "Hg10 mi
5:50 PM57 °FClear.5 mph48%30.39 "Hg10 mi
5:20 PM57 °FSunny.5 mph51%30.39 "Hg10 mi
4:50 PM59 °FSunny.7 mph48%30.39 "Hg10 mi
4:20 PM59 °FSunny.9 mph48%30.39 "Hg10 mi
3:50 PM59 °FSunny.8 mph51%30.39 "Hg10 mi
3:20 PM59 °FSunny.8 mph55%30.39 "Hg10 mi
2:50 PM59 °FSunny.6 mph55%30.39 "Hg10 mi
2:20 PM59 °FSunny.7 mph55%30.39 "Hg10 mi
1:20 PM59 °FSunny.8 mph63%30.42 "Hg10 mi
12:50 PM59 °FPassing clouds.5 mph63%30.42 "HgN/A
12:20 PM57 °FSunny.8 mph63%30.45 "Hg10 mi
11:50 AM57 °FSunny.6 mph51%30.45 "Hg10 mi
11:20 AM57 °FSunny.6 mph51%30.48 "Hg10 mi
10:50 AM57 °FSunny.5 mph59%30.48 "Hg10 mi
10:20 AM55 °FSunny.8 mph63%30.48 "Hg10 mi
9:50 AM57 °FPassing clouds.3 mph51%30.45 "HgN/A
9:20 AM54 °FPassing clouds.5 mph67%30.45 "HgN/A
8:50 AM52 °FPassing clouds.5 mph62%30.45 "HgN/A
8:20 AM48 °FSunny.1 mph54%30.45 "Hg10 mi
7:50 AM48 °FSunny.5 mph54%30.45 "Hg10 mi
7:20 AM45 °FSunny.6 mph61%30.45 "Hg10 mi
6:50 AM45 °FPassing clouds.3 mph66%30.42 "HgN/A
6:20 AM43 °FClear.5 mph71%30.42 "Hg10 mi
5:50 AM46 °FClear.3 mph66%30.42 "Hg10 mi
4:50 AM45 °FClear.5 mph71%30.42 "Hg10 mi
4:20 AM45 °FClear.6 mph71%30.42 "Hg10 mi
Weather by CustomWeather, © 2016

See weather overviewHow to use our weather pages